FW2359 Weather Reports


time (UTC)temp
F
wind
direction
speed
knots
gust
knots
rain 1hr
in
rain 24hr
in
rain mn
in
humidity
%
barometer
mb
20260506113029 59 235 12.2 25.2 0.00 0.00 0.00 72 1016.8
20260506111532 59 235 10.4 21.7 0.00 0.00 0.00 72 1016.7
20260506110029 59 237 12.2 22.6 0.00 0.00 0.00 72 1016.5
20260506104635 0 0 0.0 0.0 0.00 0.00 0.00 100
20260506101532 59 234 8.7 15.6 0.00 0.00 0.00 74 1016.2
20260506100048 59 232 10.4 18.2 0.00 0.00 0.00 74 1016.1
20260506094645 59 239 9.6 19.1 0.00 0.00 0.00 74 1016.0
20260506091529 59 242 12.2 20.9 0.00 0.00 0.00 74 1015.8
20260506090030 59 240 13.0 24.3 0.00 0.00 0.00 74 1015.6
20260506084607 59 235 11.3 20.0 0.00 0.00 0.00 75 1015.7
20260506083030 59 241 10.4 21.7 0.00 0.00 0.00 75 1015.5
20260506081528 59 242 11.3 23.5 0.00 0.00 0.00 75 1015.5
20260506073033 59 241 7.8 20.9 0.00 0.00 0.00 74 1015.4
20260506071528 59 242 8.7 17.4 0.00 0.00 0.00 74 1015.3
20260506044530 59 273 8.7 13.0 0.00 0.00 0.00 75 1014.2
20260506034529 60 276 6.1 13.0 0.00 0.00 0.00 71 1013.4
20260506033106 61 267 6.1 12.2 0.00 0.00 0.00 70 1013.2
20260506031529 62 270 6.1 13.0 0.00 0.00 0.00 69 1013.1
20260506030033 63 267 6.1 12.2 0.00 0.00 0.00 67 1012.9
20260506024543 64 268 6.1 13.9 0.00 0.00 0.00 65 1012.7
20260506021532 66 262 7.8 16.5 0.00 0.00 0.00 62 1012.6
20260506020030 67 268 7.0 12.2 0.00 0.00 0.00 60 1012.5
20260506014531 68 269 7.0 13.0 0.00 0.00 0.00 57 1012.5
20260506013029 70 254 4.3 13.9 0.00 0.00 0.00 56 1012.4
20260506011606 70 251 6.1 15.6 0.00 0.00 0.00 55 1012.3
20260506010031 70 251 6.1 18.2 0.00 0.00 0.00 55 1012.3
20260506003029 70 262 8.7 15.6 0.00 0.00 0.00 56 1012.2
20260506000032 70 260 9.6 17.4 0.00 0.00 0.00 57 1012.3
20260505234529 70 265 10.4 18.2 0.00 0.00 0.00 56 1012.3
20260505233032 70 262 10.4 17.4 0.00 0.00 0.00 56 1012.5
20260505223029 70 271 9.6 18.2 0.00 0.00 0.00 56 1012.8
20260505221532 70 263 10.4 20.0 0.00 0.00 0.00 55 1013.0
20260505220030 70 261 9.6 16.5 0.00 0.00 0.00 56 1013.1
20260505214533 70 265 8.7 14.8 0.00 0.00 0.00 56 1013.2
20260505213033 70 265 10.4 19.1 0.00 0.00 0.00 56 1013.3
20260505211531 70 261 9.6 19.1 0.00 0.00 0.00 56 1013.4
20260505210031 69 267 8.7 16.5 0.00 0.00 0.00 56 1013.5
20260505204607 70 266 8.7 17.4 0.00 0.00 0.00 56 1013.6
20260505203033 70 266 8.7 15.6 0.00 0.00 0.00 56 1013.7
20260505201529 70 265 7.8 14.8 0.00 0.00 0.00 55 1013.8
20260505200033 70 261 7.8 15.6 0.00 0.00 0.00 54 1013.9
20260505194529 70 246 7.8 15.6 0.00 0.00 0.00 54 1014.0
20260505193030 69 252 7.8 13.0 0.00 0.00 0.00 56 1014.1
20260505191605 68 262 7.8 16.5 0.00 0.00 0.00 57 1014.1
20260505190032 68 262 8.7 14.8 0.00 0.00 0.00 57 1014.2
20260505183030 67 256 8.7 14.8 0.00 0.00 0.00 58 1014.4
20260505181540 66 258 7.0 13.9 0.00 0.00 0.00 59 1014.4
20260505180029 65 251 7.8 13.9 0.00 0.00 0.00 59 1014.4
20260505174601 65 249 9.6 17.4 0.00 0.00 0.00 61 1014.4
20260505173030 64 248 9.6 20.9 0.00 0.00 0.00 62 1014.4
20260505171528 63 248 9.6 19.1 0.00 0.00 0.00 64 1014.4
20260505170034 62 253 10.4 17.4 0.00 0.00 0.00 65 1014.4
20260505164531 62 251 9.6 15.6 0.00 0.00 0.00 66 1014.4
20260505163029 61 248 10.4 17.4 0.00 0.00 0.00 67 1014.3
20260505153030 59 240 8.7 18.2 0.00 0.00 0.00 73 1014.1
20260505151532 59 250 7.8 17.4 0.00 0.00 0.00 73 1014.1
20260505124608 57 236 7.8 20.0 0.00 0.00 0.00 78 1012.9
20260505123144 57 230 9.6 17.4 0.00 0.00 0.00 77 1012.8
20260505121530 57 243 8.7 18.2 0.00 0.00 0.00 77 1012.6
20260505120031 57 241 8.7 15.6 0.00 0.00 0.00 77 1012.5